W8BYH Weather Reports


time (UTC)temp
C
wind
direction
speed
KPH
gust
KPH
rain 1hr
cm
rain 24hr
cm
rain mn
cm
humidity
%
barometer
mb
20260906161602 32 0 0.0 0.0 0.00 2.97 0.03 68 1013.4
20260906160054 31 0 0.0 0.0 0.00 2.97 0.03 70 1013.5
20260906154549 31 0 0.0 0.0 0.00 2.97 0.03 70 1013.6
20260906153048 31 0 0.0 0.0 0.00 2.97 0.03 76 1013.8
20260906151544 30 0 0.0 0.0 0.00 2.97 0.03 76 1013.8
20260906150058 28 0 0.0 0.0 0.00 2.97 0.03 82 1013.7
20260906144600 27 0 0.0 0.0 0.00 2.97 0.03 87 1013.5
20260906143046 27 0 0.0 0.0 0.00 2.97 0.03 91 1013.6
20260906141547 26 0 0.0 0.0 0.00 2.97 0.03 95 1013.5
20260906140057 25 0 0.0 0.0 0.00 2.97 0.03 97 1013.6
20260906134549 24 0 0.0 0.0 0.00 2.97 0.03 99 1013.5
20260906133048 23 0 0.0 0.0 0.00 2.97 0.03 99 1013.7
20260906131553 23 0 0.0 0.0 0.00 2.97 0.03 99 1013.9
20260906130053 22 0 0.0 0.0 0.00 2.97 0.03 99 1013.9
20260906124550 21 0 0.0 0.0 0.00 2.97 0.03 99 1013.9
20260906123048 21 0 0.0 0.0 0.00 2.97 0.03 99 1013.7
20260906121547 21 0 0.0 0.0 0.00 2.97 0.03 99 1013.5
20260906120050 21 0 0.0 0.0 0.00 2.97 0.03 98 1013.4
20260906114550 21 0 0.0 0.0 0.00 2.97 0.03 98 1013.3
20260906113049 21 0 0.0 0.0 0.00 2.97 0.03 98 1013.5
20260906111548 21 0 0.0 0.0 0.00 2.97 0.03 98 1013.3
20260906110045 21 0 0.0 0.0 0.00 2.97 0.03 98 1013.3
20260906104605 21 0 0.0 0.0 0.00 2.97 0.03 98 1013.3
20260906103047 21 0 0.0 0.0 0.00 2.97 0.03 98 1013.3
20260906101548 21 0 0.0 0.0 0.00 2.97 0.03 98 1013.1
20260906100046 21 0 0.0 0.0 0.00 2.97 0.03 98 1013.1
20260906094622 21 0 0.0 0.0 0.00 2.97 0.03 98 1013.0
20260906093101 21 0 0.0 0.0 0.00 2.97 0.03 98 1013.1
20260906091547 21 0 0.0 0.0 0.00 2.97 0.03 98 1013.1
20260906090045 21 0 0.0 0.0 0.00 2.97 0.03 98 1012.9
20260906084550 21 0 0.0 0.0 0.00 2.97 0.03 98 1012.9
20260906083048 21 0 0.0 0.0 0.00 2.97 0.03 98 1012.7
20260906081554 21 0 0.0 0.0 0.00 2.97 0.03 98 1012.6
20260906080052 21 0 0.0 0.0 0.00 2.97 0.03 98 1012.7
20260906074543 21 0 0.0 0.0 0.00 2.97 0.03 98 1012.8
20260906073050 21 0 0.0 0.0 0.00 2.97 0.03 98 1012.9
20260906071548 21 0 0.0 0.0 0.00 2.97 0.03 98 1013.1
20260906070049 22 0 0.0 0.0 0.00 2.97 0.03 98 1013.1
20260906064542 22 0 0.0 0.0 0.00 2.97 0.03 98 1013.2
20260906063050 22 0 0.0 0.0 0.00 2.97 0.03 98 1013.3
20260906061551 22 0 0.0 0.0 0.00 2.97 0.03 98 1013.4
20260906060048 22 0 0.0 0.0 0.00 2.97 0.03 97 1013.5
20260906054554 22 0 0.0 0.0 0.00 2.97 0.03 98 1013.4
20260906053048 22 0 0.0 0.0 0.00 2.97 0.03 98 1013.5
20260906051546 22 0 0.0 0.0 0.00 2.97 0.03 98 1013.5
20260906050050 22 0 0.0 0.0 0.03 2.97 0.03 98 1013.5
20260906044553 22 0 0.0 0.0 0.03 2.97 0.03 98 1013.6
20260906043049 22 0 0.0 0.0 0.03 2.97 0.03 97 1013.6
20260906041550 22 0 0.0 0.0 0.03 2.97 0.03 97 1013.5
20260906040100 22 0 0.0 0.0 0.00 2.95 0.00 97 1013.4
20260906034601 22 0 0.0 0.0 0.00 2.95 2.95 97 1013.4
20260906033048 22 0 0.0 0.0 0.00 2.95 2.95 97 1013.5
20260906031550 22 0 0.0 0.0 0.00 2.95 2.95 97 1013.7
20260906030046 22 0 0.0 0.0 0.00 2.95 2.95 97 1014.1
20260906024550 22 0 0.0 0.0 0.00 2.95 2.95 97 1014.0
20260906023051 22 0 0.0 0.0 0.00 2.95 2.95 97 1014.0
20260906021600 22 0 0.0 0.0 0.00 2.95 2.95 97 1014.0
20260906020058 22 0 0.0 0.0 0.00 2.95 2.95 97 1014.2
20260906014556 22 0 0.0 0.0 0.00 2.95 2.95 97 1013.9
20260906013048 22 0 0.0 0.0 0.00 2.95 2.95 96 1013.9
20260906011558 22 0 0.0 3.2 0.00 2.95 2.95 96 1014.2
20260906010105 22 0 0.0 0.0 0.15 2.95 2.95 95 1013.6
20260906004550 22 0 0.0 1.6 1.12 2.95 2.95 95 1013.2
20260906003054 22 0 0.0 1.6 2.90 2.95 2.95 94 1013.1
20260906001605 22 0 0.0 8.0 2.95 2.95 2.95 93 1012.5
20260906000051 23 0 0.0 8.0 2.79 2.79 2.79 90 1013.2
20260905234549 25 208 0.0 6.4 1.83 1.83 1.83 85 1014.4
20260905233108 30 311 1.6 4.8 0.05 0.05 0.05 70 1014.0
20260905231542 31 0 0.0 1.6 0.00 0.00 0.00 71 1011.8
20260905230053 31 0 0.0 4.8 0.00 0.00 0.00 70 1011.8
20260905224556 31 0 0.0 1.6 0.00 0.00 0.00 70 1011.8
20260905223046 32 0 0.0 3.2 0.00 0.00 0.00 69 1011.8
20260905221550 32 71 0.0 6.4 0.00 0.00 0.00 67 1011.6
20260905220053 33 109 0.0 4.8 0.00 0.00 0.00 64 1011.4
20260905214545 33 0 0.0 4.8 0.00 0.00 0.00 61 1011.2
20260905213100 34 0 0.0 4.8 0.00 0.00 0.00 57 1011.3
20260905211549 34 0 0.0 3.2 0.00 0.00 0.00 51 1011.2
20260905210108 34 0 0.0 3.2 0.00 0.00 0.00 53 1011.3
20260905204542 34 274 0.0 1.6 0.00 0.00 0.00 53 1011.5
20260905203051 34 346 0.0 3.2 0.00 0.00 0.00 53 1011.8
20260905201555 34 0 0.0 1.6 0.00 0.00 0.00 52 1011.9
20260905200057 35 70 0.0 3.2 0.00 0.00 0.00 52 1012.3
20260905194551 34 0 0.0 3.2 0.00 0.00 0.00 52 1012.5
20260905193048 34 0 0.0 4.8 0.00 0.00 0.00 53 1012.7
20260905191546 35 0 0.0 3.2 0.00 0.00 0.00 52 1012.8
20260905190053 35 0 0.0 3.2 0.00 0.00 0.00 50 1012.8
20260905184609 35 109 0.0 4.8 0.00 0.00 0.00 49 1012.9
20260905183050 35 119 0.0 3.2 0.00 0.00 0.00 48 1013.3
20260905181556 35 0 0.0 4.8 0.00 0.00 0.00 53 1013.6
20260905174559 33 288 0.0 3.2 0.00 0.00 0.00 54 1013.7
20260905173046 34 0 0.0 3.2 0.00 0.00 0.00 56 1014.1
20260905171558 34 99 0.0 3.2 0.00 0.00 0.00 55 1014.1
20260905170043 34 0 0.0 3.2 0.00 0.00 0.00 57 1014.3
20260905164551 35 0 0.0 4.8 0.00 0.00 0.00 54 1014.5
20260905163048 35 0 0.0 3.2 0.00 0.00 0.00 55 1014.7